KF4HJW Weather Reports


time (UTC)temp
C
wind
direction
speed
KPH
gust
KPH
rain 1hr
cm
rain 24hr
cm
rain mn
cm
humidity
%
barometer
mb
20260504024327 10 360 0.0 0.0 0.00 0.00 0.00 69 1016.1
20260504023827 10 360 0.0 0.0 0.00 0.00 0.00 68 1016.0
20260504023327 10 360 0.0 1.6 0.00 0.00 0.00 68 1016.1
20260504022826 10 360 0.0 1.6 0.00 0.00 0.00 67 1016.1
20260504022327 10 360 0.0 0.0 0.00 0.00 0.00 66 1016.1
20260504021827 10 360 0.0 0.0 0.00 0.00 0.00 66 1016.1
20260504021326 10 360 0.0 0.0 0.00 0.00 0.00 64 1016.1
20260504020826 10 360 0.0 0.0 0.00 0.00 0.00 63 1016.1
20260504020326 10 360 0.0 0.0 0.00 0.00 0.00 63 1016.1
20260504015827 10 360 0.0 0.0 0.00 0.00 0.00 63 1016.1
20260504015327 10 360 0.0 0.0 0.00 0.00 0.00 61 1016.0
20260504014327 11 360 0.0 0.0 0.00 0.00 0.00 60 1016.1
20260504013826 11 360 0.0 0.0 0.00 0.00 0.00 59 1016.0
20260504013327 11 360 0.0 0.0 0.00 0.00 0.00 58 1016.0
20260504012826 11 360 0.0 0.0 0.00 0.00 0.00 58 1016.0
20260504011826 11 360 0.0 0.0 0.00 0.00 0.00 57 1015.9
20260504011326 12 360 0.0 0.0 0.00 0.00 0.00 57 1015.9
20260504010826 12 360 0.0 0.0 0.00 0.00 0.00 56 1015.7
20260504010326 12 360 0.0 0.0 0.00 0.00 0.00 55 1015.6
20260504005826 12 360 0.0 0.0 0.00 0.00 0.00 54 1015.5
20260504004826 12 360 0.0 0.0 0.00 0.00 0.00 52 1015.5
20260504004326 13 360 0.0 0.0 0.00 0.00 0.00 52 1015.4
20260504003826 13 360 0.0 0.0 0.00 0.00 0.00 50 1015.3
20260504003326 13 360 0.0 0.0 0.00 0.00 0.00 50 1015.2
20260504002826 13 360 0.0 0.0 0.00 0.00 0.00 48 1015.2
20260504001826 14 360 0.0 0.0 0.00 0.00 0.00 47 1015.1
20260504001326 14 360 0.0 0.0 0.00 0.00 0.00 46 1014.9
20260504000826 15 360 0.0 0.0 0.00 0.00 0.00 46 1014.7
20260503235826 15 360 0.0 0.0 0.00 0.00 0.00 43 1014.8
20260503235326 15 360 0.0 0.0 0.00 0.00 0.00 43 1014.7
20260503234826 15 360 0.0 0.0 0.00 0.00 0.00 42 1014.6
20260503233826 16 360 0.0 0.0 0.00 0.00 0.00 41 1014.7
20260503233326 16 360 0.0 0.0 0.00 0.00 0.00 40 1014.7
20260503232826 16 360 0.0 0.0 0.00 0.00 0.00 39 1014.6
20260503232326 16 360 0.0 1.6 0.00 0.00 0.00 37 1014.6
20260503231826 16 360 0.0 1.6 0.00 0.00 0.00 36 1014.6
20260503231326 16 360 0.0 1.6 0.00 0.00 0.00 38 1014.6
20260503230826 16 360 0.0 3.2 0.00 0.00 0.00 37 1014.6
20260503230326 16 360 0.0 3.2 0.00 0.00 0.00 38 1014.5
20260503225826 16 360 0.0 1.6 0.00 0.00 0.00 37 1014.5
20260503225326 16 360 0.0 6.4 0.00 0.00 0.00 37 1014.6
20260503224826 16 360 0.0 6.4 0.00 0.00 0.00 36 1014.6
20260503224326 16 360 0.0 3.2 0.00 0.00 0.00 37 1014.5
20260503223826 17 360 0.0 3.2 0.00 0.00 0.00 36 1014.6
20260503223326 17 360 0.0 4.8 0.00 0.00 0.00 38 1014.7
20260503222826 17 360 0.0 4.8 0.00 0.00 0.00 36 1014.7
20260503222326 17 360 0.0 3.2 0.00 0.00 0.00 37 1014.8
20260503221326 17 360 0.0 6.4 0.00 0.00 0.00 37 1014.8
20260503220826 17 304 1.6 6.4 0.00 0.00 0.00 35 1014.8
20260503220326 17 277 0.0 6.4 0.00 0.00 0.00 34 1014.8
20260503215826 17 73 0.0 0.0 0.00 0.00 0.00 34 1014.7
20260503215326 17 154 0.0 6.4 0.00 0.00 0.00 35 1014.6
20260503214826 17 92 0.0 6.4 0.00 0.00 0.00 33 1014.5
20260503214326 17 149 1.6 8.0 0.00 0.00 0.00 33 1014.4
20260503213826 17 312 1.6 8.0 0.00 0.00 0.00 32 1014.5
20260503212826 17 307 3.2 8.0 0.00 0.00 0.00 34 1014.6
20260503212326 17 298 1.6 8.0 0.00 0.00 0.00 32 1014.6
20260503211826 17 309 0.0 8.0 0.00 0.00 0.00 33 1014.5
20260503211326 17 309 0.0 8.0 0.00 0.00 0.00 33 1014.6
20260503210826 17 293 1.6 9.7 0.00 0.00 0.00 31 1014.5
20260503210326 17 355 1.6 9.7 0.00 0.00 0.00 33 1014.5
20260503205826 17 9 0.0 11.3 0.00 0.00 0.00 33 1014.6
20260503205326 17 291 8.0 16.1 0.00 0.00 0.00 31 1014.6
20260503204826 17 278 1.6 16.1 0.00 0.00 0.00 31 1014.6
20260503204326 17 319 0.0 9.7 0.00 0.00 0.00 32 1014.6
20260503203826 17 311 0.0 9.7 0.00 0.00 0.00 32 1014.5
20260503203326 17 325 3.2 6.4 0.00 0.00 0.00 32 1014.6
20260503202826 17 331 1.6 9.7 0.00 0.00 0.00 33 1014.6
20260503202326 17 336 4.8 9.7 0.00 0.00 0.00 32 1014.7
20260503201826 16 5 0.0 9.7 0.00 0.00 0.00 31 1014.7
20260503201326 16 321 9.7 9.7 0.00 0.00 0.00 31 1014.6
20260503200826 16 327 1.6 6.4 0.00 0.00 0.00 32 1014.8
20260503200326 16 323 0.0 8.0 0.00 0.00 0.00 31 1014.9
20260503195826 17 315 0.0 9.7 0.00 0.00 0.00 31 1014.9
20260503195326 17 250 0.0 9.7 0.00 0.00 0.00 31 1014.9
20260503194326 17 290 0.0 4.8 0.00 0.00 0.00 32 1015.2
20260503193825 17 286 0.0 9.7 0.00 0.00 0.00 32 1015.1
20260503193326 17 239 0.0 9.7 0.00 0.00 0.00 34 1015.2
20260503192326 16 308 1.6 9.7 0.00 0.00 0.00 32 1015.4
20260503191826 16 264 3.2 12.9 0.00 0.00 0.00 34 1015.7
20260503191326 16 269 6.4 16.1 0.00 0.00 0.00 33 1015.5
20260503190826 16 277 1.6 16.1 0.00 0.00 0.00 32 1015.5
20260503190326 16 308 1.6 19.3 0.00 0.00 0.00 32 1015.6
20260503185826 16 293 3.2 19.3 0.00 0.00 0.00 33 1015.6
20260503185326 16 300 1.6 14.5 0.00 0.00 0.00 33 1015.8
20260503184826 16 342 0.0 14.5 0.00 0.00 0.00 34 1015.8
20260503184325 16 234 11.3 16.1 0.00 0.00 0.00 31 1015.8
20260503183826 16 252 3.2 16.1 0.00 0.00 0.00 32 1016.0
20260503182826 16 306 1.6 6.4 0.00 0.00 0.00 34 1016.0
20260503181326 15 316 3.2 11.3 0.00 0.00 0.00 35 1016.0
20260503180826 16 320 1.6 9.7 0.00 0.00 0.00 34 1016.0
20260503180326 15 360 0.0 9.7 0.00 0.00 0.00 35 1016.0
20260503175325 15 360 0.0 11.3 0.00 0.00 0.00 34 1016.1
20260503174826 15 360 4.8 12.9 0.00 0.00 0.00 35 1016.2
20260503174326 15 360 1.6 16.1 0.00 0.00 0.00 35 1016.2
20260503173326 15 360 1.6 9.7 0.00 0.00 0.00 35 1016.3
20260503172826 15 360 9.7 9.7 0.00 0.00 0.00 35 1016.3
20260503171826 15 360 3.2 11.3 0.00 0.00 0.00 37 1016.3
20260503171325 15 360 3.2 8.0 0.00 0.00 0.00 36 1016.4
20260503170825 15 360 1.6 11.3 0.00 0.00 0.00 36 1016.5
20260503170325 15 360 8.0 11.3 0.00 0.00 0.00 35 1016.6
20260503150825 13 360 0.0 6.4 0.00 0.03 0.00 43 1016.8
20260503150325 12 360 0.0 8.0 0.00 0.03 0.00 44 1016.9
20260503131325 11 360 1.6 8.0 0.00 0.03 0.00 51 1016.6
20260503130825 11 360 0.0 11.3 0.00 0.03 0.00 52 1016.5
20260503130325 11 360 6.4 11.3 0.00 0.03 0.00 51 1016.6
20260503110825 10 360 0.0 6.4 0.00 0.03 0.00 55 1015.3
20260503110324 10 360 0.0 3.2 0.00 0.03 0.00 54 1015.2
20260503090324 11 360 0.0 0.0 0.00 0.03 0.00 60 1013.2
20260503080824 11 360 0.0 9.7 0.00 0.03 0.00 60 1012.4
20260503072824 11 360 0.0 3.2 0.00 0.03 0.00 64 1012.2
20260503072324 11 360 0.0 1.6 0.00 0.03 0.00 64 1012.2
20260503071824 11 360 0.0 1.6 0.00 0.03 0.00 64 1012.1
20260503071324 11 360 0.0 1.6 0.00 0.03 0.00 65 1012.1
20260503070824 11 360 0.0 3.2 0.00 0.03 0.00 64 1012.0
20260503070324 11 360 0.0 6.4 0.00 0.03 0.00 65 1011.9
20260503060324 9 360 0.0 0.0 0.00 0.03 0.00 79 1011.5
20260503054824 9 360 0.0 0.0 0.00 0.03 0.00 77 1011.5
20260503053824 9 360 0.0 0.0 0.00 0.03 0.00 76 1011.5
20260503053324 9 360 0.0 0.0 0.00 0.03 0.00 75 1011.5
20260503052824 9 360 0.0 0.0 0.00 0.03 0.00 75 1011.4
20260503052324 10 360 0.0 0.0 0.00 0.03 0.00 75 1011.4
20260503051824 10 360 0.0 1.6 0.00 0.03 0.00 75 1011.4
20260503051324 10 360 0.0 1.6 0.00 0.03 0.00 75 1011.3
20260503045824 10 360 0.0 0.0 0.00 0.03 0.00 74 1011.5
20260503045324 10 360 0.0 0.0 0.00 0.03 0.00 73 1011.6
20260503044324 10 360 0.0 0.0 0.00 0.03 0.00 70 1011.6
20260503043324 10 360 0.0 0.0 0.00 0.03 0.00 71 1011.6
20260503041824 10 360 0.0 0.0 0.00 0.03 0.00 72 1011.6
20260503041324 10 360 0.0 0.0 0.00 0.03 0.00 71 1011.7
20260503040324 11 360 0.0 0.0 0.00 0.03 0.00 70 1011.5
20260503035824 11 360 0.0 0.0 0.00 0.03 0.00 72 1011.5
20260503035324 11 360 0.0 0.0 0.00 0.03 0.03 70 1011.7
20260503034824 11 360 0.0 0.0 0.00 0.03 0.03 70 1011.8
20260503034324 11 360 0.0 0.0 0.00 0.03 0.03 71 1011.8
20260503033824 11 360 0.0 0.0 0.00 0.03 0.03 71 1011.6
20260503033324 11 360 0.0 0.0 0.00 0.03 0.03 72 1011.4
20260503032824 11 360 0.0 0.0 0.00 0.03 0.03 71 1011.5
20260503032324 11 360 0.0 0.0 0.00 0.03 0.03 71 1011.5
20260503031324 11 360 0.0 0.0 0.00 0.03 0.03 71 1011.4
20260503030824 11 360 0.0 0.0 0.00 0.03 0.03 70 1011.4
20260503030324 11 360 0.0 0.0 0.00 0.03 0.03 69 1011.4
20260503025824 11 360 0.0 0.0 0.00 0.03 0.03 70 1011.2
20260503025323 11 360 0.0 0.0 0.00 0.03 0.03 69 1011.4
20260503024824 11 360 0.0 0.0 0.00 0.03 0.03 68 1011.5